Погода в Дорохово

Россия / Московская область     55°33′03″N   36°22′34″E
темп.,
°C
ветер,
м/с
пор.,
м/с
влажн.,
%
обл.,
%
осадки,
мм/ч
давл.,
гПа
погр.,
м
8 мая, сб
сб800:00+6ююв31177100 0.0 1011260
03:00+7ююв31287100 0.8 1010666
06:00+7ююв51393100 2.8 1008875
09:00+8юв51296100 5.5 1007869
12:00+8юв41097100 4.7 1005641
15:00+8ююв2498100 8.7 1004273
18:00+8с2398100 5.1 1003199
21:00+7ссз4998100 9.8 1002509
9 мая, вс
вс900:00+5ссз71195100 4.2 1003932
03:00+3сз61397100 12.6 1006901
06:00+3сз61392100 2.9 1009921
09:00+3сз61191100 3.1 1012940
12:00+7ссз61073100 0.1 10141335
15:00+10сз61053100 0.2 10162117
18:00+11сз595274 0.0 10182114
21:00+5сз311715 0.0 1021278
10 мая, пн
пн1000:00+2сз311751 0.0 1024212
03:00+1ссз28790 0.0 1026159
06:00+3с24750 0.0 1028115
09:00+9ссв24441 0.0 1029614
12:00+13с233416 0.0 10291396
15:00+15ссв23335 0.0 10281672
18:00+14всв23484 0.0 1028460
21:00+7всв22631 0.0 103011
11 мая, вт
вт1100:00+5в22700 0.0 103024
03:00+4св22801 0.0 103118
06:00+6всв267915 0.0 1031141
09:00+12всв475113 0.0 1031663
12:00+16в473936 0.0 10301093
15:00+17в454098 0.0 10281179
18:00+16в365472 0.0 1028679
21:00+10всв247879 0.0 102854
12 мая, ср
ср1200:00+8в28821 0.0 1028137
03:00+7всв39854 0.0 1027186
06:00+9всв311835 0.0 1026293
09:00+15всв5106991 0.0 1024583
12:00+18в71368100 0.1 10241474
15:00+16вюв6118199 0.8 10231249
18:00+16ююв377462 0.2 10241097
21:00+12св1189100 0.3 102411